Tracking 27086 objects as of 22-Mar-2023
HD Live streaming from Space Station
objects crossing your sky now

ONEWEB-0639

Track ONEWEB-0639 now!
10-day predictions
ONEWEB-0639 is classified as:


NORAD ID: 55803
Int'l Code: 2023-029H
Perigee: 596.4 km
Apogee: 610.1 km
Inclination: 86.5 °
Period: 96.6 minutes
Semi major axis: 6974 km
RCS: Unknown
Launch date: March 9, 2023
Source: United Kingdom (UK)
Launch site: AIR FORCE EASTERN TEST RANGE (AFETR)
Your satellite tracking list
Your tracking list is empty




NASA's NSSDC Master Catalog

Two Line Element Set (TLE):
1 55803U 23029H   23081.45992109 -.00129695  00000-0 -13516-1 0  9991
2 55803  86.5088 193.7421 0009879 174.1300 186.0045 14.90586736  2571
Source of the keplerian elements: AFSPC